sat.trackr.live / text

‹ back to catalog

STARLINK-31984

NORAD 60018 · 2024-111C

PAYLOAD ACTIVE UNKNOWN

§ Identity

Operator
Country
US
Launch date
2024-06-08
Launch site
AFETR
Launch vehicle
Mass (kg)
RCS (m²)

Purposes: comms

External: N2YO · Heavens-Above · Gunter

§ Orbital elements

Epoch: 2026-05-25T04:33:48.466656Z

Period
94.11 min
Inclination
53.1582°
Eccentricity
0.0001176
Mean motion
15.30203418 rev/d
Perigee alt
474.4 km
Apogee alt
476.0 km
Semi-major
6,853.3 km
B*
2.6940e-4
RAAN
80.4577°
Arg perigee
112.4092°
Mean anomaly
247.7034°
Rev number
11,059

§ Raw data

STARLINK-319841 60018U 24111C   26145.19014429  .00007629  00000+0  26940-3 0  99992 60018  53.1582  80.4577 0001176 112.4092 247.7034 15.30203418110596

JSON: /api/v1/satellites/60018 · /tle

For live sub-satellite position, see the globe view (requires WebGL).

§ Visibility from observer

Set your observer location to see the next 7 days of passes ≥ 10°. The values pass through the URL so the page stays shareable.

No JS? Fill the form by hand. The geolocation button needs JavaScript.